Weather observations for the past three days for
Tunica, Tunica Municipal Airport
Imperial (Metric)
Date Time (cdt) Wind (mph) Vis. (mi.) Weather Sky Cond. Temperature (ºF) Relative Humidity Wind Chill (°F) Heat Index (°F) Pressure Precipitation (in)
Air Dwpt 6 hour altimeter (in) sea level (mb) 1 hr 3 hr 6 hr
Max. Min.
20 03:35 N 5 10.00 Overcast BKN032 OVC040 72.5 70 92% 30.01 0.0
20 03:15 Vrbl 5 10.00 Overcast BKN032 OVC041 72.1 70.2 94% 30 0.0
20 02:55 N 3 10.00 Overcast BKN034 BKN042 OVC055 72.1 69.8 92% 30 0.0
20 02:35 N 6 10.00 Overcast OVC032 72.3 69.4 91% 30 0.0
20 02:15 Vrbl 7 10.00 Overcast BKN029 BKN055 OVC085 72 69.8 93% 30.02 0.0
20 01:55 N 6 10.00 Overcast OVC085 72 69.4 92% 30.01 0.0
20 01:35 N 7 10.00 Overcast FEW060 OVC085 72.7 69.6 90% 30.02 0.0
20 01:15 NW 7 10.00 Overcast SCT060 OVC080 72.7 70 91% 30.03 0.0
20 00:55 NW 6 10.00 Overcast SCT035 OVC080 72.5 70 92% 30.03 0.0
20 00:35 NW 6 10.00 Partly Cloudy SCT035 71.1 69.4 95% 30.03 0.0
20 00:15 N 3 10.00 Fair CLR 70.5 69.3 96% 30.03 0.0
19 23:55 Vrbl 3 10.00 Partly Cloudy SCT085 72.1 69.8 92% 30.04 0.0
19 23:35 N 3 10.00 Overcast FEW040 OVC080 73.4 70.5 91% 30.04 0.0
19 23:15 N 6 10.00 Overcast FEW040 OVC080 73.9 70.5 89% 30.04 0.0
19 22:55 Vrbl 5 10.00 Overcast FEW042 SCT060 OVC080 74.5 70.2 86% 30.04 0.0
19 22:35 Vrbl 6 10.00 Overcast BKN043 OVC060 75.2 70.5 85% 75 30.04 0.0
19 22:15 Vrbl 6 10.00 Overcast OVC040 75.6 71.1 86% 76 30.04 0.0
19 21:55 N 6 10.00 Overcast BKN040 OVC055 75.9 70.7 84% 77 30.04 0.0
19 21:35 N 5 10.00 Overcast FEW040 OVC055 75.9 70.7 84% 77 30.03 0.0
19 21:15 N 5 10.00 Overcast BKN041 OVC050 75.9 71.4 86% 76 30.03 0.0
19 20:55 N 5 10.00 Overcast OVC041 76.3 71.2 84% 77 30.03 0.0
19 20:35 N 6 10.00 Overcast OVC042 76.6 70.2 80% 78 30.02 0.0
19 20:15 NE 8 9.00 Overcast OVC042 77.2 69.6 78% 79 30.01 0.0
19 19:55 NE 6 9.00 Overcast OVC042 77.9 69.8 76% 80 30.01 0.0
19 19:35 NE 6 9.00 Overcast OVC041 78.4 70.3 76% 81 30.01 0.0
19 19:15 N 7 9.00 Overcast OVC043 79.2 70.5 75% 82 30.01 0.0
19 18:55 NE 7 9.00 Overcast BKN046 BKN060 OVC075 79.5 70.9 75% 83 30.02 0.0
19 18:35 N 5 9.00 Overcast SCT040 BKN060 OVC075 79.7 71.8 77% 83 30.01 0.0
19 18:15 NE 6 9.00 Overcast OVC040 80.1 70.5 73% 83 30.01 0.0
19 17:55 N 7 9.00 Overcast OVC041 80.2 70.2 71% 84 30.01 0.0
19 17:35 N 7 9.00 Overcast OVC042 80.2 70.9 73% 84 30.01 0.0
19 17:15 N 8 10.00 Overcast OVC043 81.1 69.8 69% 85 30.01 0.0
19 16:55 N 9 10.00 Overcast OVC044 81.5 69.4 67% 85 30.01 0.0
19 16:35 N 10 10.00 Overcast OVC045 82.9 69.8 65% 87 30.02 0.0
19 16:15 N 8 10.00 Mostly Cloudy SCT045 BKN090 84.4 70.3 63% 89 30.01 0.0
19 15:55 N 13 10.00 Partly Cloudy FEW044 SCT090 86 70 59% 91 30.01 0.0
19 15:35 N 10 9.00 Overcast SCT047 OVC090 84.7 69.1 59% 89 30.01 0.0
19 15:15 N 9 10.00 Mostly Cloudy SCT050 BKN085 83.7 69.6 63% 88 30.02 0.0
19 14:55 N 12 10.00 Partly Cloudy FEW050 SCT080 84.9 69.1 59% 89 30.03 0.0
19 14:35 N 9 10.00 A Few Clouds FEW085 85.3 69.1 58% 89 30.04 0.0
19 14:15 N 13 10.00 A Few Clouds FEW085 84.2 68.2 59% 88 30.04 0.0
19 13:55 N 10 10.00 Mostly Cloudy BKN095 84.6 68.7 59% 88 30.04 0.0
19 13:35 N 8 10.00 Overcast OVC085 83.1 68.9 62% 87 30.05 0.0
19 13:15 N 7 10.00 Overcast OVC080 82 68.7 64% 85 30.06 0.0
19 12:55 Vrbl 7 10.00 Overcast FEW036 OVC090 81.5 69.3 67% 85 30.06 0.0
19 12:35 NW 9 10.00 Mostly Cloudy BKN095 81.3 69.6 68% 85 30.07 0.0
19 12:15 Vrbl 5 10.00 Overcast FEW047 OVC095 81.9 69.4 66% 85 30.07 0.0
19 11:55 NE 6 10.00 Overcast FEW047 OVC090 80.6 68.7 67% 84 30.08 0.0
19 11:35 NE 7 10.00 Overcast OVC090 79.7 68.7 69% 82 30.08 0.0
19 11:15 NE 7 10.00 Overcast OVC090 78.1 68.4 72% 80 30.08 0.0
19 10:55 NE 7 10.00 Overcast OVC095 77.7 67.6 71% 80 30.08 0.0
19 10:15 NE 7 10.00 Overcast SCT036 OVC095 76.5 67.3 73% 78 30.08 0.0
19 09:55 NE 10 10.00 Overcast OVC036 76.3 66.7 72% 78 30.08 0.0
19 09:35 NE 9 10.00 Overcast OVC036 74.8 66.9 76% 30.09 0.0
19 09:15 N 8 10.00 Overcast OVC035 74.1 66.9 78% 30.09 0.0
19 08:55 N 8 9.00 Overcast OVC036 73.2 66.4 79% 30.09 0.0
19 08:35 N 6 10.00 Overcast OVC036 73.2 67.1 81% 30.09 0.0
19 08:15 N 6 10.00 Overcast OVC036 72.3 66.9 83% 30.08 0.0
19 07:55 NE 6 10.00 Overcast OVC036 71.8 67.3 86% 30.08 0.0
19 07:35 NE 5 10.00 Overcast BKN037 OVC046 71.8 67.6 87% 30.08 0.0
19 07:15 Vrbl 3 9.00 Overcast OVC045 71.6 67.3 86% 30.08 0.0
19 06:55 N 6 7.00 Overcast OVC046 71.2 66.9 86% 30.07 0.0
19 06:35 N 3 10.00 Overcast SCT046 OVC075 70.9 66.6 86% 30.06 0.0
19 05:55 NE 5 9.00 Overcast OVC075 70.9 67.1 88% 30.06 0.0
19 05:35 N 5 10.00 Overcast FEW050 OVC075 71.1 67.3 88% 30.06 0.0
19 05:15 N 6 9.00 Overcast SCT049 OVC070 71.4 67.3 87% 30.06 0.0
19 04:55 NE 5 10.00 Overcast BKN044 OVC070 71.4 67.8 88% 30.05 0.0
19 04:35 NE 3 10.00 Overcast BKN043 OVC055 71.8 67.5 86% 30.05 0.0
19 04:15 NE 6 10.00 Overcast BKN050 OVC060 71.4 67.8 88% 30.05 0.0
19 03:55 NE 7 10.00 Overcast BKN060 OVC085 71.4 67.6 88% 30.04 0.0
19 03:35 N 7 10.00 Mostly Cloudy SCT060 BKN090 70.3 68.4 93% 30.04 0.0
19 03:15 N 6 10.00 Partly Cloudy SCT050 71.1 68.2 91% 30.04 0.0
19 02:55 N 8 8.00 Overcast BKN046 OVC070 71.6 68.9 91% 30.04 0.0
19 02:35 N 7 8.00 Overcast SCT047 OVC070 71.6 69.4 93% 30.05 0.0
19 02:15 Vrbl 6 8.00 Overcast FEW045 OVC065 71.6 69.6 94% 30.05 0.0
19 01:55 N 6 8.00 Overcast FEW045 OVC060 71.6 69.8 94% 30.06 0.0
19 01:35 N 7 8.00 Overcast SCT045 OVC060 72 69.8 93% 30.06 0.0
19 01:15 N 6 7.00 Mostly Cloudy BKN060 71.2 69.8 95% 30.06 0.0
19 00:55 N 7 8.00 Partly Cloudy SCT100 71.4 69.8 95% 30.06 0.0
19 00:35 N 7 8.00 Mostly Cloudy BKN100 72 70 94% 30.06 0.0
19 00:15 N 6 9.00 Fair CLR 71.6 70 95% 30.05 0.0
18 23:55 N 6 10.00 Fair CLR 71.8 69.8 94% 30.05 0.0
18 23:35 N 7 9.00 Fair CLR 72.5 69.8 91% 30.04 0.0
18 23:15 Vrbl 7 10.00 A Few Clouds FEW070 72.9 69.6 90% 30.05 0.0
18 22:55 N 5 10.00 Mostly Cloudy BKN070 73.8 69.4 86% 30.05 0.0
18 22:35 N 9 9.00 Mostly Cloudy BKN065 74.7 69.1 83% 30.05 0.0
18 22:15 N 8 10.00 Overcast OVC065 75.2 69.4 82% 76 30.05 0.0
18 21:55 N 10 10.00 Overcast OVC065 76.1 69.3 79% 77 30.05 0.0
18 21:35 N 10 10.00 Overcast OVC065 76.1 69.1 79% 77 30.05 0.0
18 21:15 N 10 10.00 Mostly Cloudy BKN065 76.1 69.1 79% 77 30.04 0.0
18 20:55 N 9 9.00 Fair CLR 76.3 69.1 78% 78 30.04 0.0
18 20:35 N 10 8.00 Fair CLR 76.8 68.7 76% 78 30.03 0.0
18 20:15 N 9 8.00 Fair CLR 77.2 68.7 75% 79 30.03 0.0
18 19:55 N 8 8.00 Fair CLR 78.8 68.7 71% 81 30.02 0.0
18 19:35 N 9 9.00 Fair CLR 80.2 69.4 70% 83 30.02 0.0
18 19:15 N 13 9.00 Fair CLR 81.3 70 69% 85 30.02 0.0
18 18:55 N 13 10.00 Fair CLR 82.2 69.8 66% 86 30.01 0.0
18 18:35 N 15 10.00 Fair CLR 83.1 70.7 66% 88 30.01 0.0
18 18:15 N 15 9.00 Fair CLR 84 70.9 65% 89 30.01 0.0
18 17:55 N 15 9.00 Fair CLR 84.6 71.1 64% 90 30 0.0
18 17:35 N 17 9.00 Fair CLR 85.3 71.8 64% 91 30 0.0
18 17:15 N 17 9.00 Fair CLR 85.8 71.6 63% 92 30.01 0.0
18 16:55 N 15 9.00 Fair CLR 86.2 71.4 62% 92 30.01 0.0
18 16:35 N 15 G 23 9.00 Fair CLR 86.7 72.9 63% 94 30.01 0.0
18 16:15 N 15 10.00 Fair CLR 87.1 73.8 65% 95 30.01 0.0
18 15:55 N 14 9.00 A Few Clouds FEW040 87.4 73.6 64% 96 30.01 0.0
18 15:35 N 16 10.00 Partly Cloudy SCT036 SCT044 87.3 73.6 64% 95 30.02 0.0
18 15:15 N 12 10.00 Partly Cloudy SCT033 88 75.9 68% 99 30.02 0.0
18 14:55 N 12 10.00 A Few Clouds FEW032 86.4 75 69% 96 30.03 0.0
18 14:35 N 12 9.00 Partly Cloudy SCT031 86.9 75.6 69% 97 30.04 0.0
18 14:15 N 9 9.00 Partly Cloudy FEW030 SCT065 87.6 75.7 68% 98 30.05 0.0
18 13:55 N 12 10.00 Partly Cloudy FEW034 SCT290 87.6 76.5 70% 99 30.05 0.0
18 13:35 N 10 9.00 Partly Cloudy FEW025 SCT060 86.4 76.3 72% 97 30.06 0.0
18 13:15 N 9 9.00 Mostly Cloudy SCT024 SCT036 BKN250 86.2 77 74% 97 30.06 0.0
18 12:55 N 12 10.00 Mostly Cloudy BKN024 BKN034 84.9 76.6 76% 95 30.07 0.0
18 12:35 N 9 10.00 Overcast BKN022 OVC028 83.1 76.5 80% 92 30.07 0.0
18 12:15 N 8 10.00 Overcast OVC022 83.8 76.1 78% 93 30.07 0.0
18 11:55 N 8 9.00 Mostly Cloudy BKN020 BKN100 84.6 76.5 77% 94 30.07 0.0
18 11:35 N 8 10.00 Mostly Cloudy BKN019 BKN120 84.2 76.6 78% 94 30.07 0.0
18 11:15 N 7 10.00 Overcast SCT021 OVC120 82.4 76.1 81% 90 30.08 0.0
18 10:55 N 7 10.00 Mostly Cloudy SCT021 BKN026 BKN120 82.6 76.1 81% 90 30.08 0.0
18 10:35 NE 8 10.00 Overcast BKN020 OVC120 81.5 75.7 83% 88 30.08 0.0
18 10:15 Vrbl 5 10.00 Overcast BKN018 OVC130 81.7 75.4 81% 88 30.08 0.0
18 09:55 Calm 10.00 Mostly Cloudy BKN017 BKN130 81.5 75.7 83% 88 30.08 0.0
18 09:35 NE 7 10.00 Partly Cloudy FEW019 SCT130 SCT220 79.7 75.2 86% 84 30.07 0.0
18 09:15 NE 6 10.00 Mostly Cloudy SCT016 BKN035 BKN130 79 75.4 89% 83 30.07 0.0
18 08:55 NE 3 10.00 Overcast SCT012 BKN018 OVC130 78.3 75.9 93% 81 30.07 0.0
18 08:35 NE 6 10.00 Mostly Cloudy SCT013 BKN018 78.8 76.5 93% 83 30.07 0.0
18 08:15 NE 3 9.00 Partly Cloudy SCT006 77.2 76.1 96% 78 30.06 0.0
18 07:55 Calm 9.00 Overcast OVC006 77.7 76.6 97% 80 30.05 0.0
18 07:35 Calm 7.00 Overcast OVC006 76.1 76.1 100% 75 30.05 0.0
18 07:15 Calm 8.00 Overcast OVC006 76.3 76.3 100% 76 30.04 0.0
18 06:55 Calm 7.00 Overcast OVC006 75.7 75.7 100% 74 30.03 0.0
18 06:35 Calm 6.00 Fog/Mist BKN008 OVC130 74.7 74.7 100% 30.01 0.0
18 06:15 N 3 6.00 Fog/Mist BKN007 OVC130 74.5 74.5 100% 30 0.0
18 05:55 Calm 7.00 Overcast OVC006 74.7 74.7 100% 29.99 0.0
18 05:35 Calm 10.00 Overcast BKN006 OVC140 75 75 100% 72 29.99 0.0
18 05:15 NW 5 9.00 Overcast FEW010 OVC140 74.7 74.7 100% 29.98 0.0
18 04:55 Calm 10.00 Overcast OVC130 74.8 74.8 100% 29.97 0.0
18 04:35 Calm 10.00 Overcast OVC130 74.8 74.8 100% 29.97 0.0
18 04:15 N 3 10.00 Overcast OVC120 75.2 75.2 100% 73 29.97 0.0
18 03:55 N 8 10.00 Overcast OVC130 74.8 74.8 100% 29.96 0.0
18 03:35 NE 5 8.00 Light Rain FEW110 BKN140 74.7 74.7 100% 29.97 0.0
18 03:15 NE 7 10.00 Overcast BKN110 OVC130 75 75 100% 72 29.99 0.0
18 02:55 NE 6 10.00 Overcast OVC110 75.2 75.2 100% 73 29.99 0.0
18 02:35 NE 3 10.00 Overcast OVC110 74.7 74.7 100% 30 0.0
18 02:15 SE 3 10.00 Overcast BKN100 OVC170 75.4 74.5 97% 74 30 0.0
18 01:55 Calm 10.00 Overcast SCT032 BKN110 OVC170 76.1 74.3 94% 76 30.02 0.0
18 01:35 W 7 10.00 Mostly Cloudy FEW026 BKN034 77 74.8 93% 78 30.04 0.0
18 01:15 W 8 10.00 Overcast FEW019 SCT026 BKN110 OVC140 77 75.9 96% 78 30.04 0.0
18 00:55 SW 9 10.00 Overcast FEW019 OVC100 77.2 77 99% 78 30.04 0.0
18 00:35 SW 12 10.00 Overcast OVC100 77.2 77 99% 78 30.04 0.0
18 00:15 SW 12 10.00 Overcast OVC100 76.8 76.8 100% 77 30.04 0.0
17 23:55 W 7 10.00 Overcast OVC110 76.8 76.5 99% 77 30.02 0.0
17 23:35 N 8 10.00 Mostly Cloudy SCT120 BKN150 76.1 76.1 100% 75 30 0.0
17 23:15 Vrbl 7 10.00 A Few Clouds FEW150 75 75 100% 72 29.99 0.0
17 22:55 Calm 10.00 A Few Clouds FEW150 74.5 74.5 100% 29.99 0.0
17 22:35 N 7 10.00 Mostly Cloudy BKN100 BKN150 74.7 74.7 100% 29.98 0.0
17 22:15 NE 3 10.00 Mostly Cloudy BKN100 75.4 75.4 100% 73 29.99 0.0
17 21:55 E 3 10.00 Light Rain CLR 75.7 75.7 100% 74 29.98 0.0
17 21:35 NE 3 10.00 A Few Clouds FEW130 75.6 75.6 100% 74 29.98 0.0
17 21:15 NE 3 10.00 Partly Cloudy FEW130 SCT160 75.6 75.6 100% 74 29.99 0.0
17 20:55 NE 3 10.00 Fair CLR 76.1 76.1 100% 75 29.99 0.0
17 20:35 NE 3 10.00 Fair CLR 76.8 76.8 100% 77 29.99 0.0
17 20:15 N 5 10.00 Fair CLR 77.9 77 97% 80 29.98 0.0
17 19:55 N 7 10.00 Fair CLR 79.5 76.8 92% 85 29.98 0.0
17 19:35 N 9 10.00 Fair CLR 80.4 77 89% 87 29.98 0.0
17 19:15 N 12 10.00 Fair CLR 82.6 77.5 85% 92 29.97 0.0
17 18:55 N 10 10.00 Fair CLR 83.7 77.4 81% 94 29.97 0.0
17 18:35 NW 9 10.00 Fair CLR 84.7 77.5 79% 96 29.96 0.0
17 18:15 NW 9 10.00 Fair CLR 85.1 77.9 79% 97 29.96 0.0
17 17:55 NW 10 10.00 Fair CLR 84.7 77.2 78% 95 29.95 0.0
17 17:35 NW 10 10.00 Fair CLR 85.8 76.6 74% 96 29.94 0.0
17 17:15 W 7 10.00 Fair CLR 86.7 76.5 72% 98 29.93 0.0
17 16:55 W 6 10.00 Fair CLR 85.6 75 71% 94 29.93 0.0
17 16:35 Vrbl 6 10.00 Fair CLR 87.3 74.7 66% 96 29.93 0.0
17 16:15 W 5 10.00 Fair CLR 85.3 75.9 74% 95 29.93 0.0
17 15:55 W 5 10.00 A Few Clouds FEW350 84.4 75 74% 93 29.94 0.0
17 15:35 W 5 10.00 A Few Clouds FEW340 84.6 75.6 74% 93 29.94 0.0
17 15:15 W 5 10.00 Partly Cloudy FEW260 SCT380 84.9 75.2 73% 94 29.95 0.0
17 14:55 S 5 10.00 Partly Cloudy FEW310 SCT360 83.8 74.5 74% 91 29.94 0.0
17 14:35 SE 6 10.00 Partly Cloudy FEW180 SCT340 SCT360 82.4 75.6 80% 90 29.93 0.0
17 14:15 SE 8 10.00 Partly Cloudy SCT180 82 75.2 80% 89 29.94 0.0
17 13:55 NE 3 10.00 Partly Cloudy FEW210 SCT330 82.4 73.6 75% 88 29.96 0.0
17 13:35 E 3 10.00 Partly Cloudy FEW170 SCT330 83.1 73.8 73% 90 29.98 0.0
17 13:15 Calm 10.00 Partly Cloudy FEW170 SCT300 SCT370 83.1 74.3 75% 90 30 0.0
17 12:55 Vrbl 6 10.00 Mostly Cloudy FEW170 SCT250 SCT270 SCT290 BKN320 81.7 74.8 80% 88 30.01 0.0
17 12:35 NW 7 10.00 Partly Cloudy FEW240 SCT310 80.2 75.2 85% 85 30.02 0.0
17 12:15 N 9 10.00 Partly Cloudy FEW210 SCT300 79.2 75.9 90% 83 30.04 0.0
17 11:55 NW 6 10.00 Partly Cloudy FEW047 SCT085 78.1 77.4 98% 81 30.07 0.0
17 11:35 N 12 1.25 Light Rain Fog/Mist FEW018 SCT025 BKN041 OVC050 75 75 100% 72 30.09 0.0 0.16
17 11:15 NW 15 10.00 Mostly Cloudy BKN040 BKN049 81.5 75.2 81% 88 30.09 0.0
17 10:55 N 12 10.00 Mostly Cloudy FEW039 BKN048 BKN065 82 75.7 81% 89 30.07 0.0
17 10:35 NW 14 10.00 Mostly Cloudy SCT047 BKN060 BKN085 BKN370 82.6 75 78% 90 30.06 0.0
17 10:15 NW 12 10.00 Mostly Cloudy SCT047 BKN085 84.7 76.6 77% 95 30.05 0.0
17 09:55 NW 10 10.00 Partly Cloudy FEW048 SCT065 85.1 77.7 79% 96 30.04 0.0
17 09:35 NW 9 10.00 Mostly Cloudy SCT048 BKN065 BKN080 82.8 78.1 86% 93 30.02 0.0
17 09:15 W 7 10.00 Mostly Cloudy FEW048 BKN075 82.4 78.3 87% 92 30.02 0.0
17 08:55 Vrbl 3 10.00 Mostly Cloudy SCT075 BKN095 82 77.9 87% 91 30.01 0.0
17 08:35 S 5 9.00 Overcast BKN060 BKN080 OVC100 80.2 78.3 94% 87 30 0.0
17 08:15 S 3 9.00 Mostly Cloudy BKN060 79.5 78.1 95% 85 30 0.0
17 07:55 S 6 10.00 A Few Clouds FEW080 79.3 77.9 95% 84 30 0.0
17 07:35 SE 5 10.00 Partly Cloudy FEW065 SCT100 79.2 77.9 96% 84 29.99 0.0
17 07:15 Calm 10.00 A Few Clouds FEW100 77.2 77.2 100% 78 29.98 0.0
17 06:55 Calm 10.00 Fair CLR 75.9 75.9 100% 75 29.98 0.0
17 06:35 Calm 10.00 Fair CLR 74.3 74.3 100% 29.97 0.0
17 06:15 Calm 9.00 A Few Clouds FEW060 74.5 74.5 100% 29.96 0.0
17 05:55 SE 3 10.00 Mostly Cloudy BKN060 74.8 74.8 100% 29.96 0.0
17 05:35 Calm 10.00 Partly Cloudy SCT060 75.6 75.2 99% 74 29.96 0.0
17 05:15 SE 3 10.00 Fair CLR 75 74.8 99% 72 29.96 0.0
17 04:55 E 3 10.00 Fair CLR 75.2 75.2 100% 73 29.94 0.0
17 04:35 NE 5 10.00 Fair CLR 75.9 75.9 100% 75 29.93 0.0
17 04:15 NE 3 10.00 Fair CLR 75.9 75.9 100% 75 29.94 0.0
17 03:55 Calm 10.00 Fair CLR 76.6 75.4 96% 77 29.94 0.0
Date Time (cdt) Wind (mph) Vis. (mi.) Weather Sky Cond. Air Dwpt Max. Min. Relative Humidity Wind Chill (°F) Heat Index (°F) altimeter (in) sea level (mb) 1 hr 3 hr 6 hr
6 hour
Temperature (ºF) Pressure Precipitation (in)